When you browse on this site, cookies collect data to enhance your experience and personalize the content and advertising you see.
Visit our Privacy Policy to learn more. By continuing to use the site, you agree to this use of cookies and data.

Meteo orario Bolshie Karnyshi

Oggi, 12 Luglio, Domenica

Tempo Temperatura Precipitazioni Vento Pressione Umidità
00:00 +12°C° 0 mm 3 m/s 740 mm Hg 85%
01:00 +13°C° 0 mm 2 m/s 740 mm Hg 87%
02:00 +13°C° 0 mm 2 m/s 741 mm Hg 92%
03:00 +12°C° 1.1 mm 2 m/s 740 mm Hg 94%
04:00 +12°C° 1.1 mm 2 m/s 740 mm Hg 95%
05:00 +10°C° 1.1 mm 2 m/s 740 mm Hg 96%
06:00 +12°C° 0.2 mm 2 m/s 740 mm Hg 94%
07:00 +12°C° 0.2 mm 2 m/s 740 mm Hg 92%
08:00 +12°C° 0 mm 3 m/s 741 mm Hg 89%
09:00 +12°C° 0.1 mm 3 m/s 741 mm Hg 85%
10:00 +13°C° 0.1 mm 3 m/s 741 mm Hg 80%
11:00 +14°C° 0.1 mm 3 m/s 741 mm Hg 76%
12:00 +14°C° 0.1 mm 3 m/s 741 mm Hg 73%
13:00 +16°C° 0.1 mm 3 m/s 741 mm Hg 69%
14:00 +17°C° 0.1 mm 3 m/s 741 mm Hg 66%
15:00 +17°C° 0 mm 3 m/s 741 mm Hg 67%
16:00 +17°C° 0 mm 3 m/s 740 mm Hg 67%
17:00 +17°C° 0 mm 3 m/s 740 mm Hg 68%
18:00 +16°C° 0.1 mm 3 m/s 740 mm Hg 74%
19:00 +15°C° 0.1 mm 2 m/s 740 mm Hg 80%
20:00 +14°C° 0.1 mm 2 m/s 740 mm Hg 86%
21:00 +13°C° 0 mm 2 m/s 740 mm Hg 89%
22:00 +12°C° 0 mm 2 m/s 740 mm Hg 91%
23:00 +10°C° 0 mm 3 m/s 740 mm Hg 93%

Domani, 13 Luglio, Lunedi

Tempo Temperatura Precipitazioni Vento Pressione Umidità
00:00 +9°C° 0 mm 3 m/s 740 mm Hg 94%
01:00 +8°C° 0 mm 3 m/s 740 mm Hg 95%
02:00 +8°C° 0 mm 3 m/s 741 mm Hg 95%
03:00 +8°C° 0 mm 3 m/s 740 mm Hg 96%
04:00 +7°C° 0 mm 3 m/s 740 mm Hg 96%
05:00 +7°C° 0 mm 3 m/s 739 mm Hg 97%
06:00 +9°C° 0 mm 3 m/s 740 mm Hg 92%
07:00 +10°C° 0 mm 3 m/s 740 mm Hg 86%
08:00 +12°C° 0 mm 4 m/s 740 mm Hg 81%
09:00 +13°C° 0 mm 4 m/s 740 mm Hg 75%
10:00 +15°C° 0 mm 4 m/s 739 mm Hg 70%
11:00 +17°C° 0 mm 4 m/s 739 mm Hg 64%
12:00 +18°C° 0.1 mm 4 m/s 739 mm Hg 63%
13:00 +18°C° 0.1 mm 4 m/s 739 mm Hg 61%
14:00 +19°C° 0.1 mm 3 m/s 739 mm Hg 60%
15:00 +19°C° 0.1 mm 3 m/s 738 mm Hg 61%
16:00 +19°C° 0.1 mm 3 m/s 738 mm Hg 62%
17:00 +19°C° 0.1 mm 3 m/s 738 mm Hg 62%
18:00 +17°C° 0 mm 3 m/s 738 mm Hg 69%
19:00 +16°C° 0 mm 2 m/s 738 mm Hg 75%
20:00 +15°C° 0 mm 2 m/s 737 mm Hg 82%
21:00 +14°C° 0 mm 2 m/s 737 mm Hg 85%
22:00 +13°C° 0 mm 2 m/s 738 mm Hg 88%
23:00 +12°C° 0 mm 2 m/s 738 mm Hg 91%

Dopodomani, 14 Luglio, Martedi

Tempo Temperatura Precipitazioni Vento Pressione Umidità
00:00 +10°C° 0 mm 2 m/s 738 mm Hg 93%
01:00 +10°C° 0 mm 2 m/s 738 mm Hg 95%
02:00 +9°C° 0 mm 2 m/s 738 mm Hg 96%
03:00 +9°C° 0 mm 2 m/s 737 mm Hg 97%
04:00 +9°C° 0 mm 2 m/s 737 mm Hg 97%
05:00 +9°C° 0 mm 2 m/s 737 mm Hg 98%
06:00 +12°C° 0 mm 2 m/s 737 mm Hg 94%
07:00 +13°C° 0 mm 2 m/s 738 mm Hg 89%
08:00 +14°C° 0 mm 3 m/s 738 mm Hg 85%
09:00 +16°C° 0.1 mm 3 m/s 738 mm Hg 80%
10:00 +17°C° 0.1 mm 3 m/s 737 mm Hg 75%
11:00 +19°C° 0.1 mm 3 m/s 737 mm Hg 70%
12:00 +19°C° 0.3 mm 3 m/s 737 mm Hg 69%
13:00 +19°C° 0.3 mm 3 m/s 737 mm Hg 68%
14:00 +20°C° 0.3 mm 3 m/s 737 mm Hg 68%
15:00 +20°C° 0.3 mm 3 m/s 736 mm Hg 69%
16:00 +20°C° 0.3 mm 3 m/s 736 mm Hg 70%
17:00 +20°C° 0.3 mm 3 m/s 736 mm Hg 72%
18:00 +18°C° 0.1 mm 2 m/s 736 mm Hg 77%
19:00 +17°C° 0.1 mm 2 m/s 736 mm Hg 82%
20:00 +16°C° 0.1 mm 2 m/s 736 mm Hg 87%
21:00 +15°C° 0 mm 2 m/s 736 mm Hg 88%
22:00 +14°C° 0 mm 2 m/s 736 mm Hg 90%
23:00 +13°C° 0 mm 2 m/s 736 mm Hg 92%

15 Luglio, Mercoledi

Tempo Temperatura Precipitazioni Vento Pressione Umidità
00:00 +12°C° 0 mm 2 m/s 736 mm Hg 93%
01:00 +12°C° 0 mm 2 m/s 736 mm Hg 93%
02:00 +12°C° 0 mm 2 m/s 736 mm Hg 94%
03:00 +10°C° 0 mm 2 m/s 736 mm Hg 94%
04:00 +10°C° 0 mm 2 m/s 736 mm Hg 95%
05:00 +10°C° 0 mm 2 m/s 736 mm Hg 95%
06:00 +13°C° 0 mm 2 m/s 736 mm Hg 91%
07:00 +15°C° 0 mm 2 m/s 736 mm Hg 86%
08:00 +16°C° 0 mm 2 m/s 736 mm Hg 82%
09:00 +17°C° 0.1 mm 2 m/s 736 mm Hg 77%
10:00 +19°C° 0.1 mm 2 m/s 736 mm Hg 71%
11:00 +20°C° 0.1 mm 2 m/s 736 mm Hg 65%
12:00 +21°C° 0.1 mm 2 m/s 736 mm Hg 62%
13:00 +21°C° 0.1 mm 2 m/s 736 mm Hg 59%
14:00 +23°C° 0.1 mm 2 m/s 736 mm Hg 56%
15:00 +23°C° 0.2 mm 2 m/s 735 mm Hg 59%
16:00 +21°C° 0.2 mm 2 m/s 735 mm Hg 62%
17:00 +21°C° 0.2 mm 2 m/s 735 mm Hg 65%
18:00 +21°C° 0.1 mm 1 m/s 735 mm Hg 71%
19:00 +19°C° 0.1 mm 1 m/s 735 mm Hg 77%
20:00 +16°C° 0.1 mm 0 m/s 735 mm Hg 82%
21:00 +15°C° 0 mm 0 m/s 735 mm Hg 84%
22:00 +14°C° 0 mm 0 m/s 735 mm Hg 86%
23:00 +13°C° 0 mm 0 m/s 735 mm Hg 87%

16 Luglio, Giovedi

Tempo Temperatura Precipitazioni Vento Pressione Umidità
00:00 +13°C° 0 mm 0 m/s 735 mm Hg 88%
01:00 +13°C° 0 mm 1 m/s 735 mm Hg 89%
02:00 +13°C° 0 mm 1 m/s 735 mm Hg 89%
03:00 +13°C° 0 mm 1 m/s 734 mm Hg 90%
04:00 +13°C° 0 mm 1 m/s 734 mm Hg 91%
05:00 +13°C° 0 mm 1 m/s 734 mm Hg 91%
06:00 +14°C° 0 mm 1 m/s 734 mm Hg 87%
07:00 +16°C° 0 mm 1 m/s 734 mm Hg 83%
08:00 +19°C° 0 mm 1 m/s 734 mm Hg 79%
09:00 +19°C° 0.1 mm 2 m/s 734 mm Hg 73%
10:00 +21°C° 0.1 mm 2 m/s 734 mm Hg 68%
11:00 +23°C° 0.1 mm 2 m/s 733 mm Hg 62%
12:00 +23°C° 0.2 mm 2 m/s 733 mm Hg 62%
13:00 +24°C° 0.2 mm 3 m/s 733 mm Hg 61%
14:00 +24°C° 0.2 mm 3 m/s 733 mm Hg 61%
15:00 +22°C° 0.8 mm 3 m/s 733 mm Hg 67%
16:00 +22°C° 0.8 mm 3 m/s 733 mm Hg 72%
17:00 +21°C° 0.8 mm 2 m/s 732 mm Hg 78%
18:00 +19°C° 0.6 mm 2 m/s 732 mm Hg 84%
19:00 +17°C° 0.6 mm 2 m/s 732 mm Hg 90%
20:00 +16°C° 0.6 mm 2 m/s 732 mm Hg 96%
21:00 +15°C° 0.5 mm 2 m/s 732 mm Hg 97%
22:00 +15°C° 0.5 mm 2 m/s 733 mm Hg 97%
23:00 +15°C° 0.5 mm 1 m/s 733 mm Hg 98%

17 Luglio, Venerdi

Tempo Temperatura Precipitazioni Vento Pressione Umidità
00:00 +15°C° 0.2 mm 1 m/s 732 mm Hg 98%
01:00 +15°C° 0.2 mm 1 m/s 732 mm Hg 98%
02:00 +15°C° 0.2 mm 1 m/s 732 mm Hg 98%
03:00 +15°C° 0.4 mm 1 m/s 732 mm Hg 98%
04:00 +14°C° 0.4 mm 1 m/s 732 mm Hg 98%
05:00 +14°C° 0.4 mm 2 m/s 732 mm Hg 98%
06:00 +14°C° 2.7 mm 2 m/s 732 mm Hg 98%
07:00 +13°C° 2.7 mm 3 m/s 732 mm Hg 98%
08:00 +13°C° 2.7 mm 3 m/s 732 mm Hg 98%
09:00 +13°C° 3.4 mm 3 m/s 732 mm Hg 97%
10:00 +13°C° 3.4 mm 3 m/s 732 mm Hg 97%
11:00 +13°C° 3.4 mm 3 m/s 732 mm Hg 96%
12:00 +13°C° 0.5 mm 3 m/s 732 mm Hg 94%
13:00 +15°C° 0.5 mm 2 m/s 732 mm Hg 92%
14:00 +16°C° 0.5 mm 2 m/s 732 mm Hg 90%
15:00 +15°C° 0.3 mm 2 m/s 732 mm Hg 91%
16:00 +14°C° 0.3 mm 3 m/s 732 mm Hg 91%
17:00 +14°C° 0.3 mm 4 m/s 732 mm Hg 92%
18:00 +14°C° 0.2 mm 4 m/s 732 mm Hg 93%
19:00 +13°C° 0.2 mm 4 m/s 732 mm Hg 94%
20:00 +13°C° 0.2 mm 4 m/s 732 mm Hg 95%
21:00 +13°C° 0.1 mm 4 m/s 732 mm Hg 95%
22:00 +13°C° 0.1 mm 4 m/s 733 mm Hg 96%
23:00 +12°C° 0.1 mm 4 m/s 733 mm Hg 96%
Mostrare altro